This is the latest recevied weather packets stored in our database for station/object K5MGY. If no packets are shown the sender has not sent any weather packets the latest 10 day(s).
| Time | Temp. | Humidity | Pressure | Rain* | Wind** | Luminosity | Snow |
|---|---|---|---|---|---|---|---|
| 1778161413 | 15° C | 81% | 1044.2 hPa | 0 mm | - | 102 W/m² | - |
| 1778161109 | 14.44° C | 83% | 1044.3 hPa | 0 mm | - | 67 W/m² | - |
| 1778160805 | 14.44° C | 85% | 1044.4 hPa | 0 mm | - | 61 W/m² | - |
| 1778160504 | 13.89° C | 85% | 1044.4 hPa | 0 mm | - | 132 W/m² | - |
| 1778160200 | 13.89° C | 86% | 1044.4 hPa | 0 mm | - | 106 W/m² | - |
| 1778159897 | 13.33° C | 87% | 1044.6 hPa | 0 mm | - | 48 W/m² | - |
| 1778159594 | 13.33° C | 87% | 1044.5 hPa | 0 mm | - | 40 W/m² | - |
| 1778159290 | 13.33° C | 88% | 1044.5 hPa | 0 mm | - | 45 W/m² | - |
| 1778158988 | 12.78° C | 89% | 1044.6 hPa | 0 mm | - | 50 W/m² | - |
| 1778158687 | 12.78° C | 90% | 1044.7 hPa | 0 mm | - | 46 W/m² | - |
| 1778158384 | 12.78° C | 91% | 1044.6 hPa | 0 mm | - | 41 W/m² | - |
| 1778158081 | 12.22° C | 91% | 1044.7 hPa | 0 mm | - | 33 W/m² | - |
| 1778157777 | 12.22° C | 92% | 1044.5 hPa | 0 mm | - | 31 W/m² | - |
| 1778157476 | 12.22° C | 92% | 1044.8 hPa | 0 mm | - | 30 W/m² | - |
| 1778157173 | 11.67° C | 92% | 1044.6 hPa | 0 mm | - | 22 W/m² | - |
| 1778156868 | 11.67° C | 92% | 1044.4 hPa | 0 mm | - | 19 W/m² | - |
| 1778156564 | 11.67° C | 92% | 1044.1 hPa | 0 mm | - | 20 W/m² | - |
| 1778156260 | 11.67° C | 92% | 1044.2 hPa | 0 mm | - | 18 W/m² | - |
| 1778155956 | 11.67° C | 92% | 1044.3 hPa | 0 mm | - | 11 W/m² | - |
| 1778155652 | 11.67° C | 92% | 1044.3 hPa | 0 mm | - | 9 W/m² | - |
| 1778155350 | 11.67° C | 92% | 1044.5 hPa | 0 mm | - | 7 W/m² | - |
| 1778155046 | 11.67° C | 92% | 1044.5 hPa | 0 mm | - | 6 W/m² | - |
| 1778154742 | 11.67° C | 92% | 1044.4 hPa | 0 mm | - | 4 W/m² | - |
| 1778154437 | 11.67° C | 92% | 1044.2 hPa | 0 mm | - | 3 W/m² | - |
| 1778154135 | 11.67° C | 92% | 1044.3 hPa | 0 mm | - | 2 W/m² | - |
* Rain latest hour (hover to see other rain measurements)
** Current wind speed in m/s (hover to see current wind gust speed)